Wind_Speed
38 39 40 41 43 45 46 47 48 49 49 49 51 52 53 55 56 58 59 60 61 63 64 66 67 68 69 70 70 70 69 68 68 68 68 69 69 69
38 39 41 43 44 46 47 48 49 50 50 51 53 54 56 57 59 60 62 63 64 65 67 68 69 69 69 69 69 69 68 68 68 68 68 69 69 70
39 40 42 44 45 46 47 48 50 52 53 53 55 56 58 60 61 63 64 65 66 67 68 69 69 69 69 69 69 69 68 68 68 67 67 67 67 68
40 41 43 44 46 47 47 49 51 53 54 55 57 59 60 62 64 66 66 67 68 69 69 70 70 70 70 69 68 67 66 65 63 63 63 63 63 62
41 42 44 45 46 47 48 50 52 54 56 58 59 61 63 65 66 67 68 69 69 69 70 70 70 70 68 66 65 64 62 60 59 59 58 57 56 55
41 42 44 45 46 48 50 52 54 56 58 60 62 64 65 67 67 68 68 69 69 70 70 70 68 67 64 62 60 59 57 55 54 53 51 49 48 47
41 42 44 45 47 49 51 53 55 58 60 62 64 66 67 67 68 68 68 69 69 69 68 67 64 62 59 57 56 54 52 50 48 45 43 42 41 41
41 42 44 46 48 50 52 54 57 60 62 64 66 67 67 68 67 67 67 67 66 65 64 61 59 56 54 53 51 49 46 42 40 39 37 37 36 36
41 43 45 47 49 51 53 56 59 62 64 66 67 67 67 66 66 66 65 65 64 61 59 55 54 52 50 47 45 42 39 36 35 34 33 32 31 29
42 43 45 48 50 53 55 58 61 63 65 66 67 66 65 65 64 64 63 62 59 57 54 51 49 48 45 42 39 36 33 31 30 29 28 27 26 25
42 44 47 49 52 54 57 60 62 63 64 65 65 64 63 63 62 62 60 58 55 52 50 48 46 43 41 37 34 31 29 27 26 24 24 23 22 21
43 45 48 51 53 56 58 61 62 63 64 64 63 62 61 60 60 59 57 54 52 49 46 44 41 38 36 33 30 28 26 24 22 21 21 20 19 18
44 46 49 52 54 57 59 61 62 62 63 63 61 60 58 58 57 55 52 50 48 45 42 39 37 34 31 29 27 25 23 22 21 19 18 17 16 16
45 47 50 52 55 58 60 60 61 62 62 61 59 57 56 55 53 51 48 47 44 41 38 35 33 30 28 26 24 23 21 20 19 18 17 16 15 15
45 48 50 53 56 58 59 60 61 61 61 59 57 56 55 52 50 47 45 43 41 37 34 31 29 27 25 23 22 21 19 18 18 17 16 15 14 13
46 48 51 54 57 58 58 60 61 60 59 57 55 54 51 48 46 44 42 40 37 34 31 29 26 24 23 22 20 19 18 18 17 16 15 13 12 12
47 49 52 55 57 57 58 59 60 59 57 56 53 50 47 45 43 41 39 36 33 30 28 26 24 22 21 20 19 18 17 17 16 16 15 13 12 12
47 50 53 55 56 57 58 59 58 57 56 53 49 47 44 42 40 38 36 33 30 28 26 25 23 21 19 18 18 17 16 16 16 15 14 13 12 12
48 51 54 56 56 57 57 57 57 56 53 49 46 44 42 40 38 36 33 31 28 26 24 23 21 20 19 18 17 16 16 16 15 14 13 13 12 11
49 52 54 55 56 57 56 56 55 53 50 47 45 42 40 38 36 33 31 28 26 24 22 21 19 19 18 17 16 16 15 15 14 14 13 12 11 10
50 52 54 55 56 56 55 54 53 51 49 46 43 40 38 36 33 31 28 26 24 22 20 19 18 18 17 16 16 15 14 13 13 13 12 11 10 10
50 52 54 55 55 54 54 53 51 50 47 43 41 38 36 33 31 28 26 24 22 20 19 18 17 16 16 15 15 14 14 13 13 12 11 11 10 9
51 52 54 54 54 54 53 51 50 48 45 42 39 37 34 30 28 26 24 22 20 19 18 17 16 15 15 14 14 13 13 12 12 11 11 10 10 9
Wind_Direction
301 301 302 302 303 304 305 305 305 306 306 305 304 304 304 304 303 303 303 302 301 300 299 298 297 296 295 293 292 290 287 285 283 281 279 278 277 276
300 301 302 302 303 305 305 305 306 306 306 306 305 305 305 304 304 304 303 303 302 301 300 300 299 298 297 295 293 291 289 286 284 282 281 279 278 277
301 302 302 303 304 305 305 305 306 306 307 307 306 306 305 305 305 304 304 304 303 302 302 301 300 299 298 296 294 292 290 288 286 284 282 281 279 278
301 302 302 304 305 306 306 306 306 307 308 307 307 306 306 306 305 305 305 305 304 304 303 302 302 300 299 297 295 294 292 290 287 285 284 283 281 279
301 302 303 305 306 306 306 306 307 308 308 308 308 307 307 307 306 306 306 306 305 305 304 304 303 302 300 299 297 295 293 291 290 288 286 284 282 280
302 303 304 306 306 306 306 307 308 309 309 308 308 308 308 307 307 307 307 307 306 306 306 305 304 303 302 300 299 297 295 294 292 289 287 285 282 280
302 304 306 307 307 307 308 308 309 310 309 309 309 309 308 308 308 308 308 308 308 308 307 306 305 304 303 302 300 299 297 295 292 290 288 286 284 281
304 306 307 308 308 309 309 310 311 311 310 310 310 310 309 309 309 309 309 310 310 310 309 308 307 306 305 303 302 301 300 297 294 292 290 288 286 282
305 307 308 309 309 310 310 311 312 311 311 311 312 311 311 310 310 311 311 312 312 312 311 310 309 309 308 306 305 304 303 300 297 294 291 290 287 283
306 307 309 310 310 311 312 313 313 312 312 312 312 312 312 312 312 312 313 313 313 313 313 312 312 311 310 309 308 307 306 303 300 297 294 292 289 285
307 308 310 311 312 312 313 314 314 314 314 314 314 313 313 313 314 314 314 314 315 313 313 313 313 312 311 311 311 309 308 306 304 301 298 295 292 288
308 309 311 313 314 314 315 315 315 315 315 315 315 315 315 315 315 316 316 316 316 314 314 314 314 314 313 312 312 312 311 309 307 304 301 298 295 292
309 311 312 314 315 315 316 316 317 317 317 317 316 316 316 317 317 318 318 318 318 317 316 316 316 316 315 313 314 314 313 312 311 309 306 303 299 295
311 312 314 315 317 317 318 318 318 318 318 318 318 318 318 318 318 319 320 320 320 319 318 318 318 317 317 316 315 315 315 315 314 312 309 306 302 298
312 314 315 317 318 319 319 319 319 319 319 319 319 319 319 319 319 320 320 321 321 321 320 320 320 320 319 319 319 318 318 317 315 314 312 309 305 302
313 315 317 318 319 320 320 321 321 321 321 320 320 320 320 320 321 321 322 322 322 322 321 321 321 321 321 321 322 321 320 319 318 316 314 312 306 304
315 316 318 320 321 321 321 322 322 322 322 322 321 321 321 321 322 323 323 323 323 323 323 323 322 322 322 322 323 322 321 321 320 319 318 313 308 305
316 317 319 321 322 322 322 323 324 323 323 323 322 322 322 322 323 323 323 323 323 323 323 323 324 323 324 324 324 324 322 322 322 320 319 316 313 308
318 319 321 322 322 323 323 324 324 325 324 323 323 322 322 323 323 323 323 323 323 322 322 323 324 324 325 326 326 325 323 323 323 322 321 318 314 309
319 321 322 323 323 324 324 325 325 325 325 324 323 322 322 323 323 324 323 323 323 323 324 324 324 324 325 325 326 326 325 324 324 324 323 320 318 314
321 322 323 324 325 325 325 325 325 325 325 324 323 322 322 323 323 323 322 322 323 323 324 324 325 325 326 326 327 328 328 327 327 327 326 325 322 319
322 323 324 325 325 325 325 325 325 325 324 323 323 323 323 323 322 322 322 322 322 323 324 325 326 327 328 328 330 330 330 330 330 330 328 327 325 322
322 324 325 325 325 325 325 325 325 325 324 323 323 323 322 322 322 322 322 322 322 323 324 325 326 326 327 328 330 331 331 332 332 332 332 331 329 327
Height
5716 5712 5707 5702 5697 5691 5686 5680 5675 5669 5664 5657 5650 5644 5637 5630 5623 5616 5610 5603 5596 5588 5581 5574 5568 5561 5554 5547 5540 5534 5528 5523 5519 5515 5513 5510 5507 5505
5708 5703 5698 5693 5688 5682 5676 5670 5664 5658 5652 5646 5639 5632 5624 5617 5609 5602 5595 5587 5579 5571 5563 5555 5548 5540 5533 5525 5518 5512 5506 5501 5497 5493 5489 5486 5484 5482
5699 5695 5690 5684 5679 5673 5666 5660 5654 5647 5641 5635 5627 5619 5611 5603 5595 5587 5579 5570 5562 5554 5545 5537 5528 5520 5512 5505 5497 5490 5484 5479 5474 5470 5466 5463 5460 5458
5691 5686 5681 5675 5669 5663 5657 5650 5643 5636 5629 5623 5615 5606 5598 5589 5580 5571 5562 5553 5545 5536 5527 5518 5509 5500 5492 5484 5476 5469 5462 5457 5452 5448 5445 5442 5439 5436
5682 5677 5672 5666 5660 5653 5647 5640 5633 5625 5617 5610 5602 5593 5584 5574 5565 5556 5546 5536 5527 5517 5508 5499 5489 5480 5471 5463 5455 5448 5442 5437 5433 5429 5425 5422 5419 5417
5673 5668 5662 5656 5650 5643 5636 5629 5622 5614 5605 5597 5588 5579 5569 5558 5548 5539 5530 5519 5510 5500 5490 5480 5470 5461 5452 5444 5437 5430 5424 5419 5414 5410 5407 5404 5402 5400
5664 5659 5653 5646 5640 5633 5626 5618 5610 5602 5593 5583 5574 5564 5554 5543 5533 5523 5513 5503 5493 5482 5472 5462 5453 5444 5436 5428 5421 5414 5408 5403 5398 5394 5392 5389 5387 5385
5655 5649 5643 5637 5630 5623 5615 5607 5598 5589 5579 5570 5559 5549 5538 5527 5517 5506 5496 5487 5478 5468 5456 5447 5437 5429 5421 5413 5406 5400 5394 5389 5385 5382 5379 5376 5374 5373
5646 5640 5634 5627 5620 5612 5604 5596 5586 5575 5565 5555 5544 5533 5522 5512 5502 5492 5481 5470 5461 5451 5441 5433 5423 5415 5408 5400 5394 5388 5383 5378 5374 5371 5368 5366 5364 5362
5637 5631 5624 5617 5609 5602 5593 5584 5574 5563 5553 5541 5530 5519 5507 5496 5486 5476 5466 5457 5447 5437 5428 5420 5412 5404 5396 5390 5384 5378 5374 5370 5365 5362 5360 5358 5356 5354
5627 5621 5614 5607 5599 5591 5582 5572 5562 5550 5539 5527 5516 5504 5493 5482 5472 5462 5452 5443 5435 5426 5417 5409 5401 5394 5387 5381 5376 5371 5367 5363 5359 5355 5353 5351 5349 5348
5618 5612 5605 5597 5588 5578 5569 5559 5548 5537 5526 5515 5503 5492 5481 5470 5460 5450 5440 5431 5423 5415 5407 5399 5392 5385 5380 5374 5369 5365 5361 5357 5354 5350 5348 5345 5343 5342
5608 5602 5594 5586 5577 5567 5557 5546 5535 5524 5513 5502 5491 5480 5470 5459 5449 5439 5430 5421 5413 5405 5398 5391 5385 5378 5373 5369 5364 5360 5356 5353 5349 5346 5344 5341 5339 5338
5599 5592 5584 5575 5566 5556 5545 5534 5523 5512 5501 5490 5479 5469 5459 5449 5439 5429 5421 5412 5404 5397 5390 5384 5378 5373 5368 5363 5359 5356 5352 5349 5345 5343 5340 5338 5336 5334
5589 5582 5574 5565 5555 5545 5534 5523 5512 5500 5489 5478 5468 5458 5448 5439 5429 5421 5412 5405 5397 5390 5384 5378 5373 5368 5363 5359 5355 5352 5348 5345 5342 5340 5337 5335 5333 5331
5580 5572 5564 5555 5545 5534 5523 5512 5501 5489 5478 5468 5457 5448 5438 5429 5421 5413 5405 5398 5391 5384 5378 5373 5368 5364 5360 5356 5352 5348 5345 5342 5339 5337 5334 5332 5330 5328
5570 5562 5554 5544 5534 5523 5512 5502 5490 5479 5468 5458 5448 5438 5429 5421 5413 5405 5398 5392 5385 5379 5374 5369 5364 5360 5356 5353 5349 5346 5342 5340 5337 5334 5332 5330 5328 5326
5561 5552 5544 5534 5523 5513 5502 5491 5480 5469 5459 5448 5439 5430 5422 5414 5406 5399 5393 5386 5380 5375 5370 5365 5361 5357 5353 5350 5347 5343 5340 5337 5335 5332 5329 5327 5325 5323
5551 5542 5533 5523 5513 5503 5492 5481 5471 5460 5450 5440 5431 5423 5415 5407 5400 5394 5387 5381 5376 5371 5366 5362 5357 5354 5350 5347 5344 5341 5338 5335 5332 5330 5328 5325 5323 5321
5541 5533 5523 5513 5503 5493 5482 5472 5462 5451 5442 5432 5424 5416 5408 5401 5395 5389 5382 5377 5372 5367 5363 5359 5355 5351 5348 5345 5342 5339 5336 5333 5330 5328 5326 5323 5321 5319
5532 5523 5513 5503 5493 5483 5473 5463 5453 5443 5434 5425 5417 5409 5402 5396 5389 5383 5378 5373 5368 5364 5360 5356 5353 5349 5346 5342 5340 5337 5334 5332 5329 5326 5324 5322 5320 5318
5522 5513 5503 5494 5484 5474 5464 5454 5444 5435 5426 5418 5410 5403 5396 5390 5384 5379 5374 5369 5365 5361 5357 5354 5350 5347 5344 5341 5338 5335 5333 5330 5328 5325 5323 5320 5318 5317
5512 5503 5494 5484 5474 5464 5455 5445 5436 5427 5418 5411 5403 5397 5390 5384 5379 5374 5370 5366 5362 5358 5355 5351 5348 5345 5342 5339 5337 5334 5331 5329 5326 5324 5322 5319 5317 5315